Location: ???????
(56.2167°N, 38.0500°E)
Time: 04:05:54
(UTC+00:00)

Cosmos 1300 - Pass Details

Date: 19 May 2025
Orbit: 394 x 396 km, 82.5° (Epoch: 19 June)

Event Time Altitude Azimuth Distance (km) Brightness Sun altitude
Rises 19:11:02 0° 9° (N) 2,327 6.9 -8.8°
Enters shadow 19:17:51 - 92° (E) 2,327 5.7 -9.3°
Exits shadow 19:53:44 -74° 166° (SSE) 12,644 9.7 -11.5°
Drops below altitude 10° 20:43:25 -1° 352° (N) 2,399 8.2 -13.3°
Sets 20:43:28 0° 352° (N) 2,380 8.2 -13.3°
Maximum altitude 20:48:42 39° 72° (ENE) 622 3.2 -13.4°
